Location: Sungai Ketit
(2.6833°N, 113.2333°E)
Time: 21:17:56
(UTC+00:00)

Cosmos 2100 Rocket - Pass Details

Date: 23 May 2024
Orbit: 954 x 1001 km, 82.9° (Epoch: 19 June)

Event Time Altitude Azimuth Distance (km) Brightness Sun altitude
Rises 10:51:34 0° 357° (N) 3,616 7.3 -5.5°
Reaches altitude 10° 10:54:02 10° 358° (N) 2,672 6.6 -6.1°
Maximum altitude 11:00:09 87° 86° (E) 959 4.0 -7.5°
Drops below altitude 10° 11:06:18 10° 176° (S) 2,689 6.1 -8.9°
Sets 11:08:48 0° 176° (S) 3,642 6.7 -9.5°
